Tracking 18630 objects as of 23-May-2017
HD Live streaming from Space Station
objects crossing your sky now

COSMOS 1481 DEB

Track COSMOS 1481 DEB now!


NORAD ID: 14192
Int'l Code: 1983-070E
Perigee: 2,235.5 km
Apogee: 38,243.0 km
Inclination: 67.6 °
Period: 720.0 minutes
Semi major axis: 26610 km
RCS: 2.531 m2 (large)
Launch date: July 8, 1983
Source: Commonwealth of Independent States (former USSR) (CIS)
Launch site: PLESETSK MISSILE AND SPACE COMPLEX (PKMTR)

Note: This is SATELLITE DEBRIS
Your satellite tracking list
Your tracking list is empty





NASA's NSSDC Master Catalog

Two Line Element Set (TLE):
1 14192U 83070E   17142.88815580 +.00000187 +00000-0 +00000-0 0  9999
2 14192 067.5780 089.2096 6765718 359.8088 310.8235 02.03146564172336
Source of the keplerian elements: AFSPC